Regional Weather Roundup
Issued by NWS Bismarck, ND

Home | Current Version | Previous Version | Text Only | Print | Product List | Glossary On
Versions: 1 2 3 4 5 6 7 8 9 10 11 12 13 14 15 16 17 18 19 20 21 22 23 24 25 26 27 28 29 30 31 32 33 34 35 36 37 38 39 40 41 42 43 44 45 46 47 48 49 50
000
ASUS43 KBIS 020720
RWRBIS

NWR BROADCAST TEXT
NATIONAL WEATHER SERVICE BISMARCK ND
200 AM CDT THU OCT 02 2014

NOTE: "FAIR" INDICATES FEW OR NO CLOUDS BELOW 12,000 FEET WITH NO
SIGNIFICANT WEATHER AND/OR OBSTRUCTIONS TO VISIBILITY.


CITY           SKY/WX    TMP DP  RH WIND       PRES   REMARKS
WILLISTON      CLEAR     42  39  89 CALM      29.85F
MINOT          PTCLDY    48  43  82 SW9       29.81S
MINOT AFB      PTCLDY    47  46  96 W7        29.81R
BISMARCK       MOCLDY    48  45  89 W6        29.88S
DICKINSON      CLEAR     42  39  89 W5        29.88S
GARRISON         N/A     46  43  89 W8        29.85R
HETTINGER ARPT CLEAR     39  37  92 NW6       29.93S
JAMESTOWN      PTCLDY    49  46  90 W8        29.83S
BEACH            N/A     39  39 100 SW8       29.92R
CARRINGTON     FAIR      45  45 100 W7        29.84S
CROSBY         FAIR      43  43 100 SW9       29.82S
HARVEY         FAIR      45  45 100 SW7       29.83R
HAZEN          FAIR      41  39  93 W3        29.87F
LINTON         FAIR      48  48 100 W5        29.88S
MANDAN         CLOUDY    46  45  93 W6        29.88S
OAKES            N/A     46  46 100 W6        29.86S
RUGBY          FAIR      45  45 100 W7        29.80R
STANLEY        FAIR      41  41 100 W9        29.84S
TIOGA          FAIR      37  37 100 SW6       29.87S
WATFORD CITY   FAIR      41  41 100 SW7       29.85S
$$

CITY           SKY/WX    TMP DP  RH WIND       PRES   REMARKS
GRAND FORKS    PTCLDY    52  48  86 W7        29.78R
GRAND FORKS AF CLEAR     51  50  97 W8        29.79R
DEVILS LAKE    CLEAR     50  43  76 W9        29.79R
FARGO          CLEAR     54  48  80 SW8       29.82R
CANDO          FAIR      43  43 100 W8        29.80R
CAVALIER       PTSUNNY   54  46  76 W7        29.77R
GRAFTON        FAIR      48  48 100 W8        29.77R
GWINNER        CLOUDY    54  48  82 NW7       29.86S
LANGDON        FAIR      45  45 100 W9        29.77S
ROLLA          CLOUDY    45  45 100 SW7       29.79R
WALHALLA         N/A     54  48  82 W6        29.76R
$$

CITY           SKY/WX    TMP DP  RH WIND       PRES   REMARKS
ABERDEEN       CLOUDY    48  46  93 CALM      29.87F
MOBRIDGE       CLOUDY    52  48  86 NW6       29.88S
BUFFALO          N/A     41  36  82 NW8       29.88F
RAPID CITY     PTCLDY    41  39  93 CALM      29.99R
GLASGOW        MOCLDY    48  38  68 SW6       29.83S
SIDNEY         CLEAR     39  37  93 S3        29.89S
WOLF POINT     CLOUDY    42  39  89 W5        29.85F
GLENDIVE       PTCLDY    39  36  87 S6        29.91S
MILES CITY     MOCLDY    40  33  76 SE8       29.93S
BAKER          CLEAR     40  36  86 CALM      29.94S
$$

CITY           SKY/WX    TMP DP  RH WIND       PRES   REMARKS
BILLINGS       CLEAR     47  32  56 SW12      29.97R
GREAT FALLS    PTCLDY    41  31  67 SW10      29.95R
REGINA         PTCLDY    34  32  93 SW8       29.75F
ESTEVAN        PTCLDY    39  39 100 SW7       29.80F
$$



USA.gov is the U.S. government's official web portal to all federal, state and local government web resources and services.